Weather in Mishchenskiy

Russia / Stavropol Krai     44°35′55″N   41°36′13″E
temp.,
°C
wind,
m/s
gust,
m/s
humid.,
%
clouds,
%
prec.,
mm/h
press.,
hPa
HPBL,
m
26 july, mon
mon2600:00+20ese513630 0.0 1015413
03:00+19ese414710 0.0 1015390
06:00+18ese414780 0.0 1015511
09:00+24e914540 0.0 10151126
12:00+27e912430 0.0 10141432
15:00+27e911424 0.0 10141611
18:00+26ene7115314 0.0 1013834
21:00+21e615603 0.2 1014435
27 july, tue
tue2700:00+22e81558100 0.0 1013739
03:00+19ese61180100 0.6 1014384
06:00+17ene3897100 2.8 1016281
09:00+18ene71396100 9.3 1016593
12:00+18ene71491100 1.1 1016754
15:00+20ene91474100 1.1 10161131
18:00+18ene91576100 0.1 10171040
21:00+17ene81578100 0.2 1018904
28 july, wed
wed2800:00+17e61469100 0.1 1018920
03:00+16e61376100 0.3 1018632
06:00+15ese51288100 1.2 1019484
09:00+15ese51187100 1.3 1019491
12:00+21e610624 0.0 10171000
15:00+23ene79540 0.0 10171422
18:00+21e68650 0.0 10171054
21:00+15e311840 0.0 1018254
29 july, thu
thu2900:00+14ese310900 0.0 1016214
03:00+13ese33890 0.0 101642
06:00+13se36810 0.0 1016114
09:00+22e713495 0.0 10151193
12:00+25e911410 0.0 10141530
15:00+26e89410 0.0 10131703
18:00+24e59520 0.0 1013486
21:00+18e34630 0.0 101458
30 july, fri
fri3000:00+16se33750 0.0 101335
03:00+15sse22840 0.0 101322
06:00+16sse34820 0.0 101461
09:00+23e58540 0.0 1013612
12:00+27e67330 0.0 10111382
15:00+28e56400 0.0 10101740
18:00+26ese46520 0.0 1011254
21:00+20se22630 0.0 101112